Hourly Weather Roundup
Issued by NWS Central Illinois

Home | Current Version | Previous Version | Text Only | Print | Product List | Glossary On
Versions: 1 2 3 4 5 6 7 8 9 10 11 12 13 14 15 16 17 18 19 20 21 22 23 24 25 26 27 28 29 30 31 32 33 34 35 36 37 38 39 40 41 42 43 44 45 46 47 48 49 50
000
NZUS43 KILX 061810
HWRILX

AREA WEATHER ROUNDUP
NATIONAL WEATHER SERVICE, LINCOLN IL
100 PM CDT WED MAY 06 2015


CITY           SKY/WX    TMP DP  RH WIND       PRES   REMARKS
BLOOMINGTON    MOSUNNY   82  55  39 S15       30.14F HX  81
6HR MIN TEMP:  62; 6HR MAX TEMP:  82;

CHAMPAIGN      MOSUNNY   86  46  24 SW16G22   30.14F HX  83
6HR MIN TEMP:  65; 6HR MAX TEMP:  87;

DANVILLE       PTSUNNY   82  51  33 W3        30.12F HX  81
6HR MIN TEMP:  61; 6HR MAX TEMP:  83;

DECATUR        FAIR      83  50  31 S9G25     30.13F HX  81
6HR MIN TEMP:  66; 6HR MAX TEMP:  84;

EFFINGHAM      FAIR      84  44  24 S12       30.15F HX  82
FLORA          MOSUNNY   84  50  30 S13G18    30.14F HX  82
6HR MIN TEMP:  58; 6HR MAX TEMP:  85;

GALESBURG      FAIR      80  55  41 S14G22    30.08F HX  80
JACKSONVILLE     N/A     86  53  31 S12G23    30.08F HX  84
LACON          FAIR      81  57  44 S13       30.09F HX  81
6HR MIN TEMP:  58; 6HR MAX TEMP:  81;

LAWRENCEVILLE  MOSUNNY   85  53  33 S13       30.15F HX  83
6HR MIN TEMP:  63; 6HR MAX TEMP:  86;

LITCHFIELD     FAIR      82  50  31 S16G23    30.11F HX  81
$$


CITY           SKY/WX    TMP DP  RH WIND       PRES   REMARKS
LINCOLN        FAIR      83  51  32 SW10G17   30.08F HX  82
6HR MIN TEMP:  62; 6HR MAX TEMP:  84;

MACOMB         FAIR      82  53  37 S20G25    30.09F HX  81
MATTOON        FAIR      82  54  37 S9        30.14F HX  81
6HR MIN TEMP:  63; 6HR MAX TEMP:  82; 6HR PCP: TRACE;

MT CARMEL AP   MOSUNNY   88  39  18 S13       30.14F HX  84
OLNEY-NOBLE AP FAIR      82  52  34 S10G18    30.14F HX  81
PARIS          MOSUNNY   85  51  31 SW16      30.16F HX  83
6HR MIN TEMP:  64; 6HR MAX TEMP:  85;

PEORIA         FAIR      84  53  34 S17G25    30.09F HX  82
6HR MIN TEMP:  62; 6HR MAX TEMP:  84;

PONTIAC        FAIR      82  58  44 S12G18    30.13F HX  82
RANTOUL        MOSUNNY   85  50  29 SW9G18    30.13F HX  83
6HR MIN TEMP:  64; 6HR MAX TEMP:  86;

ROBINSON       MOSUNNY   87  49  26 S9G16     30.16F HX  84
6HR MIN TEMP:  58; 6HR MAX TEMP:  87;

SPRINGFIELD    FAIR      86  52  30 S16G26    30.10F HX  84
6HR MIN TEMP:  67; 6HR MAX TEMP:  86;

TAYLORVILLE    FAIR      82  52  34 S21       30.11F HX  81
$$

...REGIONAL REPORTS...


CITY           SKY/WX    TMP DP  RH WIND       PRES   REMARKS
CHICAGO O`HARE MOSUNNY   73  60  63 SE5       30.14F
KANKAKEE       SUNNY     80  63  55 S3        30.15F HX  82
MOLINE         FAIR      81  56  42 S17G23    30.05F HX  81
MOUNT VERNON   FAIR     N/A N/A N/A S8        30.14F
PITTSFIELD     PTSUNNY   81  54  39 S13G22    30.09F HX  80
QUINCY         FAIR      81  55  40 SW20G30   30.05F HX  81
ROCKFORD       PTSUNNY   72  62  71 SE8       30.14F
$$


CITY           SKY/WX    TMP DP  RH WIND       PRES   REMARKS
BURLINGTON     FAIR      81  58  45 S17       30.05F HX  81
CEDAR RAPIDS   FAIR      79  56  45 S20G33    30.00F HX  80
DES MOINES     CLOUDY    76  59  55 S22G29    29.94F
KIRKSVILLE     CLOUDY    75  61  61 S12       30.02S
OTTUMWA        PTSUNNY   79  59  50 S23G32    29.97F HX  80
ST LOUIS       PTSUNNY   85  53  33 S14G24    30.10F HX  83
$$


CITY           SKY/WX    TMP DP  RH WIND       PRES   REMARKS
TERRE HAUTE    SUNNY     84  54  35 S9        30.16F HX  83
EVANSVILLE     MOSUNNY   84  54  35 S9        30.16F HX  83
INDIANAPOLIS   PTSUNNY   82  53  36 S3        30.16F HX  81
LAFAYETTE      MOSUNNY   81  55  40 S7        30.15F HX  81
MADISON        PTSUNNY   65  59  81 SE7       30.13F HAZE
MILWAUKEE      CLOUDY    54  50  86 SE9       30.19F FOG
$$




USA.gov is the U.S. government's official web portal to all federal, state and local government web resources and services.